Regional Weather Roundup
Issued by NWS

Home | Current Version | Previous Version | Graphics & Text | Print | Product List | Glossary Off
Versions: 1 2 3 4 5 6 7 8 9 10 11 12 13 14 15 16 17 18 19 20 21 22 23 24 25 26 27 28 29 30 31 32 33 34 35 36 37 38 39 40 41 42 43 44 45 46 47 48 49 50

000
ASUS43 KDTX 032201
RWRMI
MICHIGAN HOURLY REGIONAL WEATHER ROUNDUP
NATIONAL WEATHER SERVICE DETROIT/PONTIAC MI
600 PM EDT MON AUG 03 2015

NOTE: "FAIR" INDICATES FEW OR NO CLOUDS BELOW 12,000 FEET WITH NO
SIGNIFICANT WEATHER AND/OR OBSTRUCTION TO VISIBILITY.

MIZ047>049-052>055-059>063-066>070-074>076-081>083-032300-
SOUTHEAST LOWER MICHIGAN

CITY           SKY/WX    TMP DP  RH WIND       PRES   REMARKS
ADRIAN         SUNNY     78  53  41 NW15      29.81R
ALMA           CLOUDY    75  50  41 W10       29.80R
ANN ARBOR      PTSUNNY   78  58  49 NW8       29.79R
BAD AXE        MOSUNNY   74  54  50 NW9G17    29.77S
CARO           CLOUDY    74  58  58 NW6       29.77S
DETROIT CITY   SUNNY     79  56  45 NW12G22   29.77S
DETROIT        MOSUNNY   81  60  48 NW13G20   29.77S
FLINT          PTSUNNY   79  54  41 W10       29.78S
GROSSE ILE     MOSUNNY   82  55  39 W9G20     29.76R
HILLSDALE      SUNNY     77  51  39 NW15G22   29.83S
HOWELL         MOSUNNY   78  49  36 W14       29.80R

CITY           SKY/WX    TMP DP  RH WIND       PRES   REMARKS
JACKSON        SUNNY     75  54  47 NW13      29.82R
LAMBERTVILLE   MOSUNNY   81  58  44 W10       29.79S
LANSING        SUNNY     77  50  38 W20G26    29.81S
LAPEER         FAIR      76  56  51 NW6       29.78F
MASON          SUNNY     75  49  40 W15G21    29.81R
MONROE         MOSUNNY   80  58  46 W15       29.77S
MT. CLEMENS    MOSUNNY   76  61  59 NW9       29.75F
PONTIAC        MOSUNNY   76  58  53 W12       29.78F
PORT HURON     MOSUNNY   75  61  60 NW9       29.77S
TRI CITIES     CLOUDY    76  53  44 W8        29.78S
MIDLAND        CLOUDY    77  52  41 NW6       29.77S
TROY           SUNNY     78  55  44 NW15G23   29.79F
SAGINAW HB     CLOUDY    77  52  41 NW8       29.77S
$$
MIZ043>046-050>051-056>058-064>065-071>073-077>080-032300-
SOUTHWEST LOWER MICHIGAN

CITY           SKY/WX    TMP DP  RH WIND       PRES   REMARKS
BATTLE CREEK     N/A    N/A N/A N/A MISG      29.85R
BENTON HARBOR  SUNNY     75  54  47 W7        29.86R
BIG RAPIDS     PTSUNNY   74  44  34 W12G20    29.80S
COLDWATER      SUNNY     75  46  35 NW14G22   29.84S
FREMONT        FAIR      74  46  36 W14       29.82R
HOLLAND        SUNNY     75  51  43 W9        29.85R
GRAND RAPIDS   MOSUNNY   76  49  38 W16       29.83S
IONIA          FAIR      76  46  34 W17G23    29.81R
KALAMAZOO      SUNNY     77  48  35 W12G22    29.85R
LUDINGTON      MOSUNNY   76  60  56 SW7       29.82S
MARSHALL       SUNNY     76  49  37 W12G21    29.83R
MOUNT PLEASANT CLOUDY    76  52  43 W7        29.78S
MUSKEGON       MOSUNNY   76  51  41 W12       29.83R
SOUTH HAVEN    SUNNY     74  54  49 W8        29.85S
$$
MIZ016>042-032300-
NORTHERN LOWER MICHIGAN

CITY           SKY/WX    TMP DP  RH WIND       PRES   REMARKS
ALPENA         CLOUDY    70  51  51 NW10      29.76R
BEAVER ISLAND  CLOUDY    65  57  77 CALM      29.78S HAZE
BELLAIRE       CLOUDY    71  52  50 SW8       29.77S
CADILLAC       CLOUDY    72  48  42 W13       29.81R
CHARLEVOIX     CLOUDY    69  54  59 W9        29.80S
FRANKFORT      CLOUDY    70  56  62 SW7       29.79S
GAYLORD        CLOUDY    68  50  52 W13       29.79S
GRAYLING       CLOUDY    70  50  47 NW9       29.80R
HARBOR SPRINGS CLOUDY    66  54  65 W5        29.78R
HOUGHTON LAKE  MOSUNNY   72  48  42 W14       29.79F
MANISTEE       SUNNY     73  50  43 SW9       29.81S
OSCODA         CLOUDY    74  49  40 W12G23    29.75R
PELLSTON       LGT RAIN  66  56  70 NW8       29.78S
ROGERS CITY    CLOUDY    69  55  60 W10G17    29.77S
TRAVERSE CITY  PTSUNNY   74  49  41 W10       29.76S
$$
MIZ007>008-015-032300-
EASTERN UPPER MICHIGAN

CITY           SKY/WX    TMP DP  RH WIND       PRES   REMARKS
KINROSS        PTSUNNY   63  57  82 NW9       29.76S
MACKINAC ISLAN MOSUNNY   67  55  65 W15       29.76S
NEWBERRY       CLOUDY    68  51  54 NW12G20   29.76R
S. S. MARIE    PTSUNNY   64  53  67 NW9G21    29.75S
MUNISING         N/A     68  53  58 N12       29.77S
$$
MIZ004>006-011>014-085-032300-
CENTRAL UPPER MICHIGAN

CITY           SKY/WX    TMP DP  RH WIND       PRES   REMARKS
MANISTIQUE     PTSUNNY   64  59  82 NW5       29.77F
ESCANABA       PTSUNNY   73  54  49 NW16      29.75F
MENOMINEE      MOSUNNY   73  52  46 NW10G17   29.78R
SAWYER-GWINN   PTSUNNY   72  50  46 W15G23    29.78R
$$
MIZ001>003-009>011-084-032300-
WESTERN UPPER MICHIGAN

CITY           SKY/WX    TMP DP  RH WIND       PRES   REMARKS
IRON MOUNTAIN  SUNNY     70  50  49 NW15      29.79S
HOUGHTON       CLOUDY    65  51  60 W13       29.78S
COPPER HARBOR    N/A     66  52  60 VRB7      29.76R
IRONWOOD       MOSUNNY   68  54  60 NW14      29.81S
$$

ABBREVIATIONS USED IN REMARKS
   TC - TEMPERATURE IN CELSIUS
  WCI - WIND CHILL INDEX
   HX - HEAT INDEX
  VSB - VISIBILITY




USA.gov is the U.S. government's official web portal to all federal, state and local government web resources and services.